Location: Rehoboth Beach
(38.7438°N, 75.1341°W)
Time: 05:28:12
(UTC-04:00)

HST - Visible Passes

Search period start: 25 October 2014 00:00
Search period end: 03 November 2014 23:00
Orbit: 546 x 550 km, 28.5° (Epoch: 24 October)

Date Brightness Start Highest point End Pass type
(mag) Time Alt. Az. Time Alt. Az. Time Alt. Az.
26 Oct 3.1 19:04:28 10° S 19:06:01 12° SSE 19:07:35 10° SE visible
26 Oct 3.7 20:43:43 10° SW 20:43:54 11° SW 20:43:54 11° SW visible
27 Oct 3.1 18:56:24 10° SSW 18:58:36 14° SSE 19:00:47 10° SE visible
27 Oct 3.5 20:36:16 10° SW 20:37:03 13° SW 20:37:03 13° SW visible
28 Oct 3.0 18:48:36 10° SSW 18:51:10 16° SSE 18:53:45 10° SE visible
28 Oct 3.3 20:28:52 10° SW 20:30:11 16° SSW 20:30:11 16° SSW visible
29 Oct 2.9 18:40:56 10° SW 18:43:45 18° S 18:46:34 10° SE visible
29 Oct 3.1 20:21:31 10° SW 20:23:18 17° SSW 20:23:18 17° SSW visible
30 Oct 2.9 18:33:22 10° SW 18:36:20 19° S 18:39:18 10° SE visible
30 Oct 3.0 20:14:14 10° SW 20:16:26 18° SSW 20:16:26 18° SSW visible
31 Oct 2.9 18:25:51 10° SW 18:28:54 20° S 18:31:58 10° SE visible
31 Oct 3.0 20:07:00 10° SW 20:09:34 17° SSW 20:09:34 17° SSW visible
01 Nov 3.1 19:59:52 10° SW 20:02:14 15° SSW 20:02:46 15° S visible
02 Nov 3.3 18:52:53 10° SW 18:54:47 13° SSW 18:56:00 12° S visible
03 Nov 3.5 18:46:23 10° SSW 18:47:18 11° SSW 18:48:12 10° S visible
